DW4604 Weather Reports


time (UTC)temp
C
wind
direction
speed
KPH
gust
KPH
rain 1hr
cm
rain 24hr
cm
rain mn
cm
humidity
%
barometer
mb
20260510093935 17 0 0.0 0.0 0.00 0.00 0.00 56 1015.0
20260510093434 17 0 0.0 0.0 0.00 0.00 0.00 53 1015.0
20260510092934 17 0 0.0 0.0 0.00 0.00 0.00 55 1015.1
20260510091435 17 0 0.0 0.0 0.00 0.00 0.00 56 1015.2
20260510090435 17 0 0.0 0.0 0.00 0.00 0.00 59 1015.4
20260510085935 17 0 0.0 0.0 0.00 0.00 0.00 59 1015.5
20260510085434 16 0 0.0 0.0 0.00 0.00 0.00 57 1015.4
20260510084935 16 0 0.0 0.0 0.00 0.00 0.00 56 1015.5
20260510084434 16 0 0.0 0.0 0.00 0.00 0.00 57 1015.6
20260510083935 16 0 0.0 0.0 0.00 0.00 0.00 59 1015.7
20260510083435 16 0 0.0 0.0 0.00 0.00 0.00 61 1015.7
20260510082935 16 0 0.0 0.0 0.00 0.00 0.00 59 1015.8
20260510082437 16 0 0.0 0.0 0.00 0.00 0.00 59 1015.8
20260510081935 16 0 0.0 0.0 0.00 0.00 0.00 60 1015.9
20260510081435 16 0 0.0 0.0 0.00 0.00 0.00 62 1015.9
20260510080436 16 0 0.0 0.0 0.00 0.00 0.00 63 1016.0
20260510075935 16 0 0.0 0.0 0.00 0.00 0.00 61 1016.1
20260510075435 15 0 0.0 0.0 0.00 0.00 0.00 62 1016.1
20260510074934 15 0 0.0 0.0 0.00 0.00 0.00 61 1016.1
20260510074436 15 0 0.0 0.0 0.00 0.00 0.00 63 1016.0
20260510073935 15 0 0.0 0.0 0.00 0.00 0.00 64 1016.2
20260510073434 15 0 0.0 0.0 0.00 0.00 0.00 64 1016.3
20260510072436 14 0 0.0 0.0 0.00 0.00 0.00 65 1016.2
20260510071936 14 0 0.0 0.0 0.00 0.00 0.00 67 1016.2
20260510071435 14 0 0.0 0.0 0.00 0.00 0.00 67 1016.2
20260510070936 13 0 0.0 0.0 0.00 0.00 0.00 68 1016.3
20260510070435 13 0 0.0 0.0 0.00 0.00 0.00 68 1016.3
20260510065935 13 0 0.0 0.0 0.00 0.00 0.00 68 1016.1
20260510064935 13 0 0.0 0.0 0.00 0.00 0.00 71 1016.1
20260510063935 12 0 0.0 0.0 0.00 0.00 0.00 75 1016.1
20260510063435 12 0 0.0 0.0 0.00 0.00 0.00 78 1016.2
20260510062936 11 0 0.0 0.0 0.00 0.00 0.00 79 1016.2
20260510062435 11 0 0.0 0.0 0.00 0.00 0.00 84 1016.1
20260510061436 11 0 0.0 0.0 0.00 0.00 0.00 88 1016.2
20260510060936 10 0 0.0 0.0 0.00 0.00 0.00 91 1016.3
20260510060436 10 0 0.0 0.0 0.00 0.00 0.00 92 1016.3
20260510055935 10 0 0.0 0.0 0.00 0.00 0.00 93 1016.4
20260510055435 9 0 0.0 0.0 0.00 0.00 0.00 94 1016.5
20260510054435 8 0 0.0 0.0 0.00 0.00 0.00 94 1016.6
20260510053936 8 0 0.0 0.0 0.00 0.00 0.00 94 1016.7
20260510053435 8 0 0.0 0.0 0.00 0.00 0.00 94 1016.7
20260510051436 7 0 0.0 0.0 0.00 0.00 0.00 94 1016.8
20260510050936 7 0 0.0 0.0 0.00 0.00 0.00 95 1016.7
20260510050435 7 0 0.0 0.0 0.00 0.00 0.00 95 1016.8
20260510045937 6 0 0.0 0.0 0.00 0.00 0.00 94 1016.7
20260510045437 5 0 0.0 0.0 0.00 0.00 0.00 94 1016.8
20260510044936 5 0 0.0 0.0 0.00 0.00 0.00 94 1016.7
20260510043936 3 0 0.0 0.0 0.00 0.00 0.00 94 1016.9
20260510043436 3 0 0.0 0.0 0.00 0.00 0.00 94 1017.0
20260510042936 3 0 0.0 0.0 0.00 0.00 0.00 94 1017.1
20260510042435 2 0 0.0 0.0 0.00 0.00 0.00 94 1017.0
20260510041936 2 0 0.0 0.0 0.00 0.00 0.00 93 1016.8
20260510041436 2 0 0.0 0.0 0.00 0.00 0.00 93 1016.9
20260510040437 2 0 0.0 0.0 0.00 0.00 0.00 93 1016.8
20260510035435 2 0 0.0 0.0 0.00 0.00 0.00 93 1016.9
20260510034935 1 0 0.0 0.0 0.00 0.00 0.00 93 1016.9
20260510034435 1 0 0.0 0.0 0.00 0.00 0.00 93 1017.0
20260510033935 1 0 0.0 0.0 0.00 0.00 0.00 93 1017.0
20260510032436 1 0 0.0 0.0 0.00 0.00 0.00 93 1016.9
20260510031935 2 0 0.0 0.0 0.00 0.00 0.00 93 1017.0
20260510030935 2 0 0.0 0.0 0.00 0.00 0.00 93 1017.0
20260510030435 2 0 0.0 0.0 0.00 0.00 0.00 93 1017.0
20260510025936 2 0 0.0 0.0 0.00 0.00 0.00 93 1016.9
20260510025436 2 0 0.0 0.0 0.00 0.00 0.00 93 1017.0
20260510024937 2 0 0.0 0.0 0.00 0.00 0.00 93 1016.9
20260510024436 2 0 0.0 0.0 0.00 0.00 0.00 93 1016.9
20260510022936 2 0 0.0 0.0 0.00 0.00 0.00 93 1016.9
20260510022435 2 0 0.0 0.0 0.00 0.00 0.00 93 1016.9
20260510021935 2 0 0.0 0.0 0.00 0.00 0.00 93 1017.1
20260510021436 2 0 0.0 0.0 0.00 0.00 0.00 93 1017.2
20260510020935 2 0 0.0 0.0 0.00 0.00 0.00 93 1017.2
20260510020436 2 0 0.0 0.0 0.00 0.00 0.00 93 1017.2
20260510015936 2 0 0.0 0.0 0.00 0.00 0.00 93 1017.2
20260510014936 2 0 0.0 0.0 0.00 0.00 0.00 93 1017.3
20260510014436 2 0 0.0 0.0 0.00 0.00 0.00 93 1017.3
20260510013936 2 0 0.0 0.0 0.00 0.00 0.00 93 1017.4
20260510013436 2 0 0.0 0.0 0.00 0.00 0.00 93 1017.3
20260510012936 3 0 0.0 0.0 0.00 0.00 0.00 93 1017.3
20260510011436 2 0 0.0 0.0 0.00 0.00 0.00 93 1017.3
20260510010937 3 0 0.0 0.0 0.00 0.00 0.00 93 1017.3
20260510010438 2 0 0.0 0.0 0.00 0.00 0.00 93 1017.3
20260510005936 3 0 0.0 0.0 0.00 0.00 0.00 93 1017.4
20260510005437 3 0 0.0 0.0 0.00 0.00 0.00 93 1017.4
20260510004937 3 0 0.0 0.0 0.00 0.00 0.00 92 1017.4
20260510003936 3 0 0.0 0.0 0.00 0.00 0.00 92 1017.5
20260510003436 3 0 0.0 0.0 0.00 0.00 0.00 93 1017.5
20260510002936 3 0 0.0 0.0 0.00 0.00 0.00 93 1017.5
20260510001936 3 0 0.0 0.0 0.00 0.00 0.00 92 1017.7
20260510000936 3 0 0.0 0.0 0.00 0.00 0.00 92 1017.6
20260510000436 3 0 0.0 0.0 0.00 0.00 0.00 92 1017.7
20260509235936 3 0 0.0 0.0 0.00 0.00 0.00 93 1017.7
20260509235437 3 0 0.0 0.0 0.00 0.00 0.00 92 1017.7
20260509234936 3 0 0.0 0.0 0.00 0.00 0.00 92 1017.7
20260509233936 3 0 0.0 0.0 0.00 0.00 0.00 92 1017.8
20260509232937 3 0 0.0 0.0 0.00 0.00 0.00 92 1017.8
20260509232438 3 0 0.0 0.0 0.00 0.00 0.00 92 1017.8
20260509231437 4 0 0.0 0.0 0.00 0.00 0.00 92 1017.9
20260509230937 4 0 0.0 0.0 0.00 0.00 0.00 92 1018.0
20260509230438 4 0 0.0 0.0 0.00 0.00 0.00 92 1018.0
20260509225937 4 0 0.0 0.0 0.00 0.00 0.00 92 1018.1
20260509225437 4 0 0.0 0.0 0.00 0.00 0.00 92 1018.1
20260509224938 4 0 0.0 0.0 0.00 0.00 0.00 92 1018.0
20260509224437 4 0 0.0 0.0 0.00 0.00 0.00 92 1018.1
20260509223936 4 0 0.0 0.0 0.00 0.00 0.00 92 1018.1
20260509223436 5 0 0.0 0.0 0.00 0.00 0.00 92 1018.2
20260509222936 5 0 0.0 0.0 0.00 0.00 0.00 92 1018.3
20260509222437 5 0 0.0 0.0 0.00 0.00 0.00 92 1018.3
20260509221937 5 0 0.0 0.0 0.00 0.00 0.00 92 1018.4
20260509221436 5 0 0.0 0.0 0.00 0.00 0.00 92 1018.4
20260509220936 5 0 0.0 0.0 0.00 0.00 0.00 92 1018.4
20260509220437 5 0 0.0 0.0 0.00 0.00 0.00 92 1018.4
20260509215938 5 0 0.0 0.0 0.00 0.00 0.00 92 1018.4
20260509215436 5 0 0.0 0.0 0.00 0.00 0.00 92 1018.4
20260509214937 5 0 0.0 0.0 0.00 0.00 0.00 92 1018.4
20260509214436 5 0 0.0 0.0 0.00 0.00 0.00 91 1018.4
20260509213937 5 0 0.0 0.0 0.00 0.00 0.00 91 1018.4
20260509213437 5 0 0.0 0.0 0.00 0.00 0.00 91 1018.5
20260509212937 5 0 0.0 0.0 0.00 0.00 0.00 91 1018.4
20260509212437 5 0 0.0 0.0 0.00 0.00 0.00 91 1018.5
20260509211937 5 0 0.0 0.0 0.00 0.00 0.00 91 1018.5
20260509211438 5 0 0.0 0.0 0.00 0.00 0.00 91 1018.5
20260509210937 6 0 0.0 0.0 0.00 0.00 0.00 91 1018.5
20260509210437 6 0 0.0 0.0 0.00 0.00 0.00 91 1018.5
20260509205937 6 0 0.0 0.0 0.00 0.00 0.00 91 1018.6
20260509205436 6 0 0.0 0.0 0.00 0.00 0.00 91 1018.6
20260509204937 6 0 0.0 0.0 0.00 0.00 0.00 90 1018.6
20260509204437 6 0 0.0 0.0 0.00 0.00 0.00 90 1018.6
20260509203937 6 0 0.0 0.0 0.00 0.00 0.00 90 1018.7
20260509203437 6 0 0.0 0.0 0.00 0.00 0.00 90 1018.7
20260509202937 7 0 0.0 0.0 0.00 0.00 0.00 90 1018.7
20260509202438 7 0 0.0 0.0 0.00 0.00 0.00 90 1018.7
20260509201938 7 0 0.0 0.0 0.00 0.00 0.00 90 1018.7
20260509201438 7 0 0.0 0.0 0.00 0.00 0.00 90 1018.7
20260509200937 7 0 0.0 0.0 0.00 0.00 0.00 89 1018.7
20260509200438 7 0 0.0 0.0 0.00 0.00 0.00 89 1018.7
20260509195938 7 0 0.0 0.0 0.00 0.00 0.00 88 1018.6
20260509195437 7 0 0.0 0.0 0.00 0.00 0.00 88 1018.6
20260509194937 7 0 0.0 0.0 0.00 0.00 0.00 88 1018.7
20260509194438 8 0 0.0 0.0 0.00 0.00 0.00 87 1018.6
20260509193437 8 0 0.0 0.0 0.00 0.00 0.00 86 1018.7
20260509192937 8 0 0.0 0.0 0.00 0.00 0.00 86 1018.7
20260509192439 9 0 0.0 0.0 0.00 0.00 0.00 86 1018.8
20260509191937 9 0 0.0 0.0 0.00 0.00 0.00 85 1018.8
20260509190938 10 0 0.0 0.0 0.00 0.00 0.00 84 1018.8
20260509190437 10 0 0.0 0.0 0.00 0.00 0.00 83 1018.8
20260509184939 10 0 0.0 0.0 0.00 0.00 0.00 84 1018.7
20260509183938 10 0 0.0 0.0 0.00 0.00 0.00 83 1018.6
20260509183438 10 0 0.0 0.0 0.00 0.00 0.00 83 1018.7
20260509182938 11 0 0.0 0.0 0.00 0.00 0.00 82 1018.6
20260509181938 11 0 0.0 0.0 0.00 0.00 0.00 82 1018.5
20260509181438 11 0 0.0 0.0 0.00 0.00 0.00 81 1018.5
20260509180938 11 0 0.0 0.0 0.00 0.00 0.00 81 1018.5
20260509180438 11 0 0.0 0.0 0.00 0.00 0.00 80 1018.5
20260509175938 11 0 0.0 0.0 0.00 0.00 0.00 80 1018.5
20260509175437 11 0 0.0 0.0 0.00 0.00 0.00 80 1018.6
20260509174438 11 0 0.0 0.0 0.00 0.00 0.00 80 1018.6
20260509173438 11 0 0.0 0.0 0.00 0.00 0.00 79 1018.5
20260509172938 11 0 0.0 0.0 0.00 0.00 0.00 78 1018.5
20260509172438 11 0 0.0 0.0 0.00 0.00 0.00 77 1018.5
20260509171938 11 0 0.0 0.0 0.00 0.00 0.00 77 1018.5
20260509171438 11 0 0.0 0.0 0.00 0.00 0.00 76 1018.5
20260509170939 11 0 0.0 0.0 0.00 0.00 0.00 76 1018.4
20260509165938 12 0 0.0 0.0 0.00 0.00 0.00 76 1018.3
20260509165438 12 0 0.0 0.0 0.00 0.00 0.00 76 1018.4
20260509164938 12 0 0.0 0.0 0.00 0.00 0.00 75 1018.4
20260509164438 12 0 0.0 0.0 0.00 0.00 0.00 74 1018.4
20260509163939 12 0 0.0 0.0 0.00 0.00 0.00 74 1018.4
20260509163439 12 0 0.0 0.0 0.00 0.00 0.00 75 1018.4
20260509162938 12 0 0.0 0.0 0.00 0.00 0.00 74 1018.4
20260509162439 12 0 0.0 0.0 0.00 0.00 0.00 74 1018.4
20260509161938 12 0 0.0 0.0 0.00 0.00 0.00 74 1018.4
20260509161439 12 0 0.0 0.0 0.00 0.00 0.00 74 1018.4
20260509160938 12 0 0.0 0.0 0.00 0.00 0.00 74 1018.5
20260509160438 12 0 0.0 0.0 0.00 0.00 0.00 74 1018.5
20260509155437 12 0 0.0 0.0 0.00 0.00 0.00 73 1018.5
20260509154937 12 0 0.0 0.0 0.00 0.00 0.00 74 1018.6
20260509154437 12 0 0.0 0.0 0.00 0.00 0.00 75 1018.6
20260509153938 12 0 0.0 0.0 0.00 0.00 0.00 75 1018.5
20260509152939 12 0 0.0 0.0 0.00 0.00 0.00 74 1018.5
20260509152439 12 0 0.0 0.0 0.00 0.00 0.00 74 1018.4
20260509151938 12 0 0.0 0.0 0.00 0.00 0.00 74 1018.5
20260509151438 12 0 0.0 0.0 0.00 0.00 0.00 73 1018.5
20260509150937 12 0 0.0 0.0 0.00 0.00 0.00 73 1018.6
20260509150439 12 0 0.0 0.0 0.00 0.00 0.00 73 1018.5
20260509145939 12 0 0.0 0.0 0.00 0.00 0.00 72 1018.6
20260509145438 12 0 0.0 0.0 0.00 0.00 0.00 72 1018.6
20260509144939 12 0 0.0 0.0 0.00 0.00 0.00 71 1018.7
20260509144438 12 0 0.0 0.0 0.00 0.00 0.00 71 1018.6
20260509143938 12 0 0.0 0.0 0.00 0.00 0.00 73 1018.6
20260509143438 12 0 0.0 0.0 0.00 0.00 0.00 72 1018.6
20260509142439 12 0 0.0 0.0 0.00 0.00 0.00 73 1018.5
20260509141938 12 0 0.0 0.0 0.00 0.00 0.00 73 1018.5
20260509141438 12 0 0.0 0.0 0.00 0.00 0.00 71 1018.5
20260509140939 13 0 0.0 0.0 0.00 0.00 0.00 70 1018.6
20260509140439 13 0 0.0 0.0 0.00 0.00 0.00 68 1018.5
20260509135939 13 0 0.0 0.0 0.00 0.00 0.00 70 1018.4
20260509135439 13 0 0.0 0.0 0.00 0.00 0.00 69 1018.5
20260509134439 13 0 0.0 0.0 0.00 0.00 0.00 69 1018.5
20260509133939 13 0 0.0 0.0 0.00 0.00 0.00 70 1018.5
20260509133438 12 0 0.0 0.0 0.00 0.00 0.00 69 1018.6
20260509132942 12 0 0.0 0.0 0.00 0.00 0.00 68 1018.6
20260509132439 12 0 0.0 0.0 0.00 0.00 0.00 68 1018.6
20260509131438 12 0 0.0 0.0 0.00 0.00 0.00 68 1018.6
20260509130938 13 0 0.0 0.0 0.00 0.00 0.00 68 1018.6
20260509130439 13 0 0.0 0.0 0.00 0.00 0.00 69 1018.6
20260509125940 13 0 0.0 0.0 0.00 0.00 0.00 70 1018.5
20260509125439 13 0 0.0 0.0 0.00 0.00 0.00 69 1018.6
20260509124940 13 0 0.0 0.0 0.00 0.00 0.00 68 1018.6
20260509124440 13 0 0.0 0.0 0.00 0.00 0.00 68 1018.6
20260509123940 13 0 0.0 0.0 0.00 0.00 0.00 66 1018.6
20260509123439 13 0 0.0 0.0 0.00 0.00 0.00 68 1018.6
20260509121939 13 0 0.0 0.0 0.00 0.00 0.00 68 1018.6
20260509120938 13 0 0.0 0.0 0.00 0.00 0.00 65 1018.7
20260509120439 13 0 0.0 0.0 0.00 0.00 0.00 69 1018.7
20260509115939 13 0 0.0 0.0 0.00 0.00 0.00 67 1018.8
20260509115439 13 0 0.0 0.0 0.00 0.00 0.00 68 1018.8
20260509114440 13 0 0.0 0.0 0.00 0.00 0.00 68 1018.8
20260509113939 13 0 0.0 0.0 0.00 0.00 0.00 66 1018.8
20260509112439 13 0 0.0 0.0 0.00 0.00 0.00 66 1018.8
20260509111939 13 0 0.0 0.0 0.00 0.00 0.00 68 1018.8
20260509111438 13 0 0.0 0.0 0.00 0.00 0.00 67 1018.8
20260509110939 13 0 0.0 0.0 0.00 0.00 0.00 68 1018.8
20260509110439 13 0 0.0 0.0 0.00 0.00 0.00 68 1018.8
20260509105439 13 0 0.0 0.0 0.00 0.00 0.00 69 1018.9
20260509104939 13 0 0.0 0.0 0.00 0.00 0.00 66 1018.9
20260509104439 13 0 0.0 0.0 0.00 0.00 0.00 66 1018.9
20260509103940 13 0 0.0 0.0 0.00 0.00 0.00 67 1018.9
20260509103439 13 0 0.0 0.0 0.00 0.00 0.00 68 1019.0
20260509102939 13 0 0.0 0.0 0.00 0.00 0.00 67 1018.9
20260509102439 13 0 0.0 0.0 0.00 0.00 0.00 66 1018.9
20260509101439 13 0 0.0 0.0 0.00 0.00 0.00 69 1019.0
20260509100939 13 0 0.0 0.0 0.00 0.00 0.00 68 1019.0
20260509100439 13 0 0.0 0.0 0.00 0.00 0.00 66 1019.0
20260509095940 13 0 0.0 0.0 0.00 0.00 0.00 67 1019.0
20260509095440 13 0 0.0 0.0 0.00 0.00 0.00 66 1019.0
20260509094439 13 0 0.0 0.0 0.00 0.00 0.00 69 1019.0